Flag for Canada Weather past 2 weeks in Laval, Quebec, Canada

Now
79 °F

Broken clouds.


Feels Like: 81 °F
Forecast: 61 / 79 °F
Wind: 5 mph from Southwest

Location: Montreal / Mirabel

Current Time: Jul 5, 2015 at 3:40:41 PM

Latest Report: Jul 5, 2015 at 3:00 PM


Visibility: 30 mi

Pressure: 30.06 "Hg

Humidity: 61%

Dew point: 64 °F

Location of LavalLocation

Historic Weather in Laval — Graph

°F

Laval temperature yesterday

Maximum temperature yesterday: 75 °F (at 4:00 PM)
Minimum temperature yesterday: 50 °F (at 5:00 AM)
Average temperature yesterday: 64 °F

Past Weeks' High & Low Weather Summary

 TemperatureHumidityPressure
High79 °F (Jun 22, 4:00 PM)100% (Jun 21, 10:00 PM)30.19 "Hg (Jun 21, 10:00 PM)
Low50 °F (Jun 25, 5:00 AM)35% (Jun 25, 3:00 PM)29.51 "Hg (Jun 23, 2:00 PM)
Average64 °F75%29.90 "Hg
* Reported Jun 20 2:00 PM — Jul 5 2:00 PM, Laval, Weather by CustomWeather, © 2015

Note: Actual official high and low records may vary slightly from our data, if they occured in-between our weather recording intervals... More about our weather records

Advertising

Laval weather history for previous 24 hours

 ConditionsComfort  
Time TempWeatherWind HumidityBarometerVisibility
2:00 PM
Sun, Jul 5
75 °FBroken clouds.7 mph65%30.07 "Hg30 mi
1:00 PM77 °FPartly sunny.5 mph57%30.07 "Hg30 mi
12:00 PM75 °FPartly sunny.6 mph57%30.06 "Hg30 mi
11:00 AM73 °FBroken clouds.5 mph74%30.05 "Hg30 mi
10:00 AM72 °FPassing clouds.6 mph73%30.04 "Hg45 mi
9:00 AM68 °FPassing clouds.6 mph83%30.05 "Hg45 mi
8:00 AM64 °FBroken clouds.6 mph83%30.04 "Hg45 mi
7:00 AM61 °FScattered clouds.5 mph88%30.03 "Hg45 mi
6:00 AM59 °FPassing clouds.2 mph88%30.01 "Hg45 mi
5:00 AM57 °FPassing clouds.3 mph94%29.98 "Hg25 mi
4:00 AM61 °FPassing clouds.3 mph83%29.97 "Hg25 mi
3:00 AM63 °FPassing clouds.5 mph77%29.97 "Hg25 mi
2:00 AM64 °FPassing clouds.5 mph73%29.96 "Hg25 mi
1:00 AM61 °FPassing clouds.3 mph88%29.96 "Hg25 mi
12:00 AM63 °FPassing clouds.3 mph83%29.95 "Hg25 mi
11:00 PM
Sat, Jul 4
63 °FPassing clouds.2 mph83%29.94 "Hg25 mi
10:00 PM66 °FPartly cloudy.3 mph73%29.94 "Hg25 mi
9:00 PM63 °FBroken clouds.3 mph88%29.92 "Hg25 mi
8:00 PM70 °FBroken clouds.5 mph69%29.91 "Hg45 mi
7:00 PM73 °FPartly sunny.3 mph57%29.91 "Hg45 mi
6:00 PM75 °FBroken clouds.2 mph50%29.91 "Hg45 mi
5:00 PM75 °FBroken clouds.6 mph54%29.91 "Hg45 mi
4:00 PM75 °FBroken clouds.5 mph54%29.91 "Hg45 mi
3:00 PM73 °FMore clouds than sun.2 mph44%29.92 "Hg45 mi
Weather by CustomWeather, © 2015

See weather overviewHow to use our weather pages